"Sample Date","Sample Time","Sample Value","Units","Flow Rate","Sample Interval","Number Channels","Micron Size 0","Counts/Channel 0","Micron Size 1","Counts/Channel 1","Micron Size 2","Counts/Channel 2","Micron Size 3","Counts/Channel 3","Micron Size 4","Counts/Channel 4","Micron Size 5","Counts/Channel 5","Micron Size 6","Counts/Channel 6","Micron Size 7","Counts/Channel 7","Micron Size 8","Counts/Channel 8","Micron Size 9","Counts/Channel 9","Micron Size 10","Counts/Channel 10","Micron Size 11","Counts/Channel 11","Micron Size 12","Counts/Channel 12","Micron Size 13","Counts/Channel 13","Micron Size 14","Counts/Channel 14","Micron Size 15","Counts/Channel 15","Micron Size 16","Counts/Channel 16","Micron Size 17","Counts/Channel 17","Micron Size 18","Counts/Channel 18","Micron Size 19","Counts/Channel 19","Micron Size 20","Counts/Channel 20","Micron Size 21","Counts/Channel 21","Micron Size 22","Counts/Channel 22","Micron Size 23","Counts/Channel 23","Micron Size 24","Counts/Channel 24","Micron Size 25","Counts/Channel 25","Micron Size 26","Counts/Channel 26","Micron Size 27","Counts/Channel 27","Micron Size 28","Counts/Channel 28","Micron Size 29","Counts/Channel 29","Micron Size 30","Counts/Channel 30","Micron Size 31","Counts/Channel 31"
"04/08/08","20:00:05",15703.000,"cc",28527.244,6.00,6,0.100,7808.000,0.200,2612.000,0.300,2053.000,0.500,2290.000,1.000,940.000,5.000,0
"04/08/08","20:00:11",16726.000,"cc",28244.549,6.00,6,0.100,8246.000,0.200,2865.000,0.300,2286.000,0.500,2428.000,1.000,901.000,5.000,0
"04/08/08","20:00:17",16760.000,"cc",28301.316,6.00,6,0.100,8305.000,0.200,2845.000,0.300,2239.000,0.500,2460.000,1.000,911.000,5.000,0
"04/08/08","20:00:23",17466.000,"cc",28275.356,6.00,6,0.100,8334.000,0.200,3031.000,0.300,2378.000,0.500,2741.000,1.000,982.000,5.000,0
"04/08/08","20:00:29",17709.000,"cc",28365.484,6.00,6,0.100,8608.000,0.200,3037.000,0.300,2476.000,0.500,2636.000,1.000,952.000,5.000,0
"04/08/08","20:00:35",16439.000,"cc",28584.037,6.00,6,0.100,8132.000,0.200,2727.000,0.300,2217.000,0.500,2484.000,1.000,879.000,5.000,0
"04/08/08","20:00:41",14737.000,"cc",28452.369,6.00,6,0.100,7323.000,0.200,2497.000,0.300,1923.000,0.500,2167.000,1.000,827.000,5.000,0
"04/08/08","20:00:47",16588.000,"cc",28060.473,6.00,6,0.100,8083.000,0.200,2871.000,0.300,2292.000,0.500,2435.000,1.000,907.000,5.000,0
"04/08/08","20:00:53",17704.000,"cc",28168.445,6.00,6,0.100,8628.000,0.200,2906.000,0.300,2436.000,0.500,2739.000,1.000,995.000,5.000,0
"04/08/08","20:00:59",17187.000,"cc",28226.055,6.00,6,0.100,8413.000,0.200,3005.000,0.300,2337.000,0.500,2489.000,1.000,943.000,5.000,0
"04/08/08","20:01:05",15515.000,"cc",28269.373,6.00,6,0.100,7686.000,0.200,2550.000,0.300,2136.000,0.500,2289.000,1.000,854.000,5.000,0
"04/08/08","20:01:11",15252.000,"cc",28343.252,6.00,6,0.100,7600.000,0.200,2501.000,0.300,2050.000,0.500,2298.000,1.000,803.000,5.000,0
"04/08/08","20:01:17",14545.000,"cc",28482.467,6.00,6,0.100,7410.000,0.200,2440.000,0.300,1837.000,0.500,2074.000,1.000,784.000,5.000,0
"04/08/08","20:01:23",13366.000,"cc",28297.686,6.00,6,0.100,6829.000,0.200,2134.000,0.300,1742.000,0.500,1925.000,1.000,736.000,5.000,0
"04/08/08","20:01:29",14697.000,"cc",28086.863,6.00,6,0.100,7423.000,0.200,2346.000,0.300,2032.000,0.500,2073.000,1.000,823.000,5.000,0
"04/08/08","20:01:35",14620.000,"cc",28367.328,6.00,6,0.100,7400.000,0.200,2380.000,0.300,1874.000,0.500,2162.000,1.000,804.000,5.000,0
"04/08/08","20:01:41",14680.000,"cc",28382.969,6.00,6,0.100,7390.000,0.200,2389.000,0.300,1989.000,0.500,2084.000,1.000,828.000,5.000,0
"04/08/08","20:01:47",14689.000,"cc",28356.494,6.00,6,0.100,7455.000,0.200,2421.000,0.300,1867.000,0.500,2102.000,1.000,843.000,5.000,1.000
"04/08/08","20:01:53",14305.000,"cc",28471.365,6.00,6,0.100,7187.000,0.200,2338.000,0.300,1909.000,0.500,2049.000,1.000,821.000,5.000,1.000
"04/08/08","20:01:59",13498.000,"cc",28117.781,6.00,6,0.100,6910.000,0.200,2182.000,0.300,1787.000,0.500,1929.000,1.000,690.000,5.000,0
"04/08/08","20:02:05",14440.000,"cc",28299.887,6.00,6,0.100,7124.000,0.200,2380.000,0.300,1961.000,0.500,2158.000,1.000,817.000,5.000,0
"04/08/08","20:02:11",15299.000,"cc",28152.352,6.00,6,0.100,7668.000,0.200,2490.000,0.300,2068.000,0.500,2237.000,1.000,836.000,5.000,0
"04/08/08","20:02:17",14973.000,"cc",28489.012,6.00,6,0.100,7539.000,0.200,2462.000,0.300,1976.000,0.500,2147.000,1.000,849.000,5.000,0
"04/08/08","20:02:23",15829.000,"cc",28377.563,6.00,6,0.100,7861.000,0.200,2644.000,0.300,2082.000,0.500,2351.000,1.000,891.000,5.000,0
"04/08/08","20:02:29",14593.000,"cc",28233.125,6.00,6,0.100,7198.000,0.200,2436.000,0.300,2002.000,0.500,2144.000,1.000,813.000,5.000,0
"04/08/08","20:02:35",14503.000,"cc",28488.965,6.00,6,0.100,7332.000,0.200,2316.000,0.300,1968.000,0.500,2129.000,1.000,758.000,5.000,0
"04/08/08","20:02:41",15119.000,"cc",28333.949,6.00,6,0.100,7603.000,0.200,2484.000,0.300,2007.000,0.500,2143.000,1.000,882.000,5.000,0
"04/08/08","20:02:47",14820.000,"cc",28255.815,6.00,6,0.100,7506.000,0.200,2375.000,0.300,1989.000,0.500,2093.000,1.000,857.000,5.000,0
"04/08/08","20:02:53",15039.000,"cc",28293.473,6.00,6,0.100,7582.000,0.200,2512.000,0.300,1924.000,0.500,2162.000,1.000,859.000,5.000,0
"04/08/08","20:02:59",14925.000,"cc",28267.936,6.00,6,0.100,7500.000,0.200,2426.000,0.300,1978.000,0.500,2202.000,1.000,819.000,5.000,0
"04/08/08","20:03:05",16120.000,"cc",28126.453,6.00,6,0.100,7964.000,0.200,2726.000,0.300,2205.000,0.500,2390.000,1.000,835.000,5.000,0
"04/08/08","20:03:11",15547.000,"cc",28275.502,6.00,6,0.100,7827.000,0.200,2547.000,0.300,2047.000,0.500,2279.000,1.000,847.000,5.000,0
"04/08/08","20:03:17",16589.000,"cc",28372.529,6.00,6,0.100,8103.000,0.200,2744.000,0.300,2287.000,0.500,2483.000,1.000,972.000,5.000,0
"04/08/08","20:03:23",16793.000,"cc",28317.768,6.00,6,0.100,8187.000,0.200,2873.000,0.300,2241.000,0.500,2578.000,1.000,914.000,5.000,0
"04/08/08","20:03:29",16487.000,"cc",28434.457,6.00,6,0.100,8003.000,0.200,2781.000,0.300,2269.000,0.500,2469.000,1.000,965.000,5.000,0
"04/08/08","20:03:35",16551.000,"cc",28417.100,6.00,6,0.100,8035.000,0.200,2721.000,0.300,2273.000,0.500,2547.000,1.000,975.000,5.000,0
"04/08/08","20:03:41",15393.000,"cc",28416.832,6.00,6,0.100,7555.000,0.200,2494.000,0.300,2084.000,0.500,2340.000,1.000,920.000,5.000,0
"04/08/08","20:03:47",15308.000,"cc",28223.572,6.00,6,0.100,7427.000,0.200,2535.000,0.300,2132.000,0.500,2337.000,1.000,877.000,5.000,0
"04/08/08","20:03:53",15149.000,"cc",28364.883,6.00,6,0.100,7663.000,0.200,2407.000,0.300,1963.000,0.500,2227.000,1.000,889.000,5.000,0
"04/08/08","20:03:59",12527.000,"cc",28461.211,6.00,6,0.100,6602.000,0.200,1922.000,0.300,1526.000,0.500,1746.000,1.000,731.000,5.000,0
"04/08/08","20:04:05",13630.000,"cc",28210.830,6.00,6,0.100,6995.000,0.200,2124.000,0.300,1723.000,0.500,1971.000,1.000,817.000,5.000,0
"04/08/08","20:04:11",14074.000,"cc",28006.281,6.00,6,0.100,7181.000,0.200,2217.000,0.300,1823.000,0.500,2066.000,1.000,785.000,5.000,2.000
"04/08/08","20:04:17",14168.000,"cc",28279.080,6.00,6,0.100,7257.000,0.200,2241.000,0.300,1788.000,0.500,2111.000,1.000,771.000,5.000,0
"04/08/08","20:04:23",14295.000,"cc",28369.418,6.00,6,0.100,7299.000,0.200,2365.000,0.300,1799.000,0.500,2071.000,1.000,761.000,5.000,0
"04/08/08","20:04:29",15211.000,"cc",28525.381,6.00,6,0.100,7460.000,0.200,2451.000,0.300,2106.000,0.500,2315.000,1.000,879.000,5.000,0
"04/08/08","20:04:35",15134.000,"cc",28238.914,6.00,6,0.100,7484.000,0.200,2490.000,0.300,2012.000,0.500,2215.000,1.000,933.000,5.000,0
"04/08/08","20:04:41",16021.000,"cc",28314.772,6.00,6,0.100,7718.000,0.200,2744.000,0.300,2124.000,0.500,2432.000,1.000,1003.000,5.000,0
"04/08/08","20:04:47",15421.000,"cc",28186.615,6.00,6,0.100,7598.000,0.200,2602.000,0.300,2012.000,0.500,2296.000,1.000,913.000,5.000,0
"04/08/08","20:04:53",15204.000,"cc",28266.404,6.00,6,0.100,7503.000,0.200,2582.000,0.300,2020.000,0.500,2249.000,1.000,849.000,5.000,1.000
"04/08/08","20:04:59",15458.000,"cc",28247.510,6.00,6,0.100,7617.000,0.200,2619.000,0.300,2077.000,0.500,2270.000,1.000,875.000,5.000,0
"04/08/08","20:05:05",15729.000,"cc",28313.080,6.00,6,0.100,7706.000,0.200,2593.000,0.300,2160.000,0.500,2320.000,1.000,950.000,5.000,0
"04/08/08","20:05:11",16010.000,"cc",28329.301,6.00,6,0.100,7945.000,0.200,2625.000,0.300,2097.000,0.500,2465.000,1.000,878.000,5.000,0
"04/08/08","20:05:17",16040.000,"cc",28240.123,6.00,6,0.100,7998.000,0.200,2763.000,0.300,2119.000,0.500,2314.000,1.000,846.000,5.000,0
"04/08/08","20:05:23",16081.000,"cc",28413.051,6.00,6,0.100,7937.000,0.200,2666.000,0.300,2167.000,0.500,2357.000,1.000,954.000,5.000,0
"04/08/08","20:05:29",16355.000,"cc",28310.107,6.00,6,0.100,8081.000,0.200,2770.000,0.300,2229.000,0.500,2392.000,1.000,882.000,5.000,1.000
"04/08/08","20:05:35",16653.000,"cc",28263.598,6.00,6,0.100,8127.000,0.200,2773.000,0.300,2286.000,0.500,2532.000,1.000,935.000,5.000,0
"04/08/08","20:05:41",16328.000,"cc",28391.768,6.00,6,0.100,8106.000,0.200,2679.000,0.300,2275.000,0.500,2435.000,1.000,833.000,5.000,0
"04/08/08","20:05:47",14823.000,"cc",28502.875,6.00,6,0.100,7514.000,0.200,2376.000,0.300,1903.000,0.500,2196.000,1.000,834.000,5.000,0
"04/08/08","20:05:53",14503.000,"cc",28335.856,6.00,6,0.100,7403.000,0.200,2306.000,0.300,1924.000,0.500,2081.000,1.000,788.000,5.000,1.000
"04/08/08","20:05:59",15565.000,"cc",28190.537,6.00,6,0.100,7819.000,0.200,2598.000,0.300,2064.000,0.500,2235.000,1.000,849.000,5.000,0
"04/08/08","20:06:05",16118.000,"cc",28364.197,6.00,6,0.100,7956.000,0.200,2681.000,0.300,2179.000,0.500,2421.000,1.000,880.000,5.000,1.000
"04/08/08","20:06:11",17136.000,"cc",28341.234,6.00,6,0.100,8344.000,0.200,2927.000,0.300,2284.000,0.500,2580.000,1.000,1001.000,5.000,0
"04/08/08","20:06:17",18363.000,"cc",28338.670,6.00,6,0.100,8897.000,0.200,3072.000,0.300,2645.000,0.500,2712.000,1.000,1037.000,5.000,0
"04/08/08","20:06:23",15694.000,"cc",28377.801,6.00,6,0.100,7955.000,0.200,2587.000,0.300,2050.000,0.500,2250.000,1.000,852.000,5.000,0
"04/08/08","20:06:29",19026.000,"cc",28166.451,6.00,6,0.100,9282.000,0.200,3321.000,0.300,2577.000,0.500,2738.000,1.000,1108.000,5.000,0
"04/08/08","20:06:35",15102.000,"cc",28116.264,6.00,6,0.100,7623.000,0.200,2457.000,0.300,2030.000,0.500,2158.000,1.000,834.000,5.000,0
"04/08/08","20:06:41",14175.000,"cc",28255.697,6.00,6,0.100,7205.000,0.200,2358.000,0.300,1814.000,0.500,2043.000,1.000,755.000,5.000,0
"04/08/08","20:06:47",14209.000,"cc",28503.863,6.00,6,0.100,7309.000,0.200,2265.000,0.300,1828.000,0.500,2041.000,1.000,766.000,5.000,0
"04/08/08","20:06:53",13589.000,"cc",28253.221,6.00,6,0.100,6978.000,0.200,2188.000,0.300,1687.000,0.500,1994.000,1.000,742.000,5.000,0
"04/08/08","20:06:59",12955.000,"cc",28605.467,6.00,6,0.100,6639.000,0.200,2072.000,0.300,1632.000,0.500,1863.000,1.000,749.000,5.000,0
"04/08/08","20:07:05",13513.000,"cc",28358.445,6.00,6,0.100,7072.000,0.200,2093.000,0.300,1667.000,0.500,1929.000,1.000,751.000,5.000,1.000
"04/08/08","20:07:11",13403.000,"cc",28285.867,6.00,6,0.100,6947.000,0.200,2097.000,0.300,1616.000,0.500,1947.000,1.000,796.000,5.000,0
"04/08/08","20:07:17",15430.000,"cc",28034.715,6.00,6,0.100,7696.000,0.200,2628.000,0.300,2022.000,0.500,2248.000,1.000,836.000,5.000,0
"04/08/08","20:07:23",15885.000,"cc",28256.240,6.00,6,0.100,7839.000,0.200,2553.000,0.300,2112.000,0.500,2402.000,1.000,979.000,5.000,0
"04/08/08","20:07:29",13275.000,"cc",28434.752,6.00,6,0.100,6812.000,0.200,2096.000,0.300,1760.000,0.500,1851.000,1.000,756.000,5.000,0
"04/08/08","20:07:35",13309.000,"cc",28447.643,6.00,6,0.100,6887.000,0.200,2086.000,0.300,1715.000,0.500,1878.000,1.000,743.000,5.000,0
"04/08/08","20:07:41",13376.000,"cc",28383.299,6.00,6,0.100,6928.000,0.200,2004.000,0.300,1735.000,0.500,1951.000,1.000,758.000,5.000,0
"04/08/08","20:07:47",14178.000,"cc",28299.717,6.00,6,0.100,7116.000,0.200,2197.000,0.300,1799.000,0.500,2181.000,1.000,885.000,5.000,0
"04/08/08","20:07:53",14955.000,"cc",28231.236,6.00,6,0.100,7413.000,0.200,2496.000,0.300,1967.000,0.500,2210.000,1.000,869.000,5.000,0
"04/08/08","20:07:59",15060.000,"cc",28288.076,6.00,6,0.100,7574.000,0.200,2494.000,0.300,1933.000,0.500,2170.000,1.000,889.000,5.000,0
"04/08/08","20:08:05",14541.000,"cc",28171.484,6.00,6,0.100,7490.000,0.200,2394.000,0.300,1782.000,0.500,2075.000,1.000,800.000,5.000,0
"04/08/08","20:08:11",14869.000,"cc",28269.910,6.00,6,0.100,7317.000,0.200,2512.000,0.300,1979.000,0.500,2180.000,1.000,881.000,5.000,0
"04/08/08","20:08:17",14343.000,"cc",28503.533,6.00,6,0.100,7217.000,0.200,2282.000,0.300,1892.000,0.500,2071.000,1.000,881.000,5.000,0
"04/08/08","20:08:23",14814.000,"cc",28163.328,6.00,6,0.100,7408.000,0.200,2404.000,0.300,1990.000,0.500,2142.000,1.000,870.000,5.000,0
"04/08/08","20:08:29",16001.000,"cc",28093.650,6.00,6,0.100,8024.000,0.200,2666.000,0.300,2084.000,0.500,2310.000,1.000,917.000,5.000,0
"04/08/08","20:08:35",16914.000,"cc",28286.299,6.00,6,0.100,8388.000,0.200,2831.000,0.300,2282.000,0.500,2507.000,1.000,906.000,5.000,0
"04/08/08","20:08:41",19581.000,"cc",28317.301,6.00,6,0.100,9518.000,0.200,3398.000,0.300,2794.000,0.500,2837.000,1.000,1034.000,5.000,0
"04/08/08","20:08:47",18220.000,"cc",28326.285,6.00,6,0.100,8852.000,0.200,3172.000,0.300,2521.000,0.500,2688.000,1.000,987.000,5.000,0
"04/08/08","20:08:53",16914.000,"cc",28389.522,6.00,6,0.100,8398.000,0.200,2898.000,0.300,2258.000,0.500,2464.000,1.000,896.000,5.000,0
"04/08/08","20:08:59",15407.000,"cc",28233.877,6.00,6,0.100,7631.000,0.200,2576.000,0.300,2066.000,0.500,2277.000,1.000,857.000,5.000,0
"04/08/08","20:09:05",16327.000,"cc",28296.430,6.00,6,0.100,8170.000,0.200,2712.000,0.300,2182.000,0.500,2350.000,1.000,913.000,5.000,0
"04/08/08","20:09:11",16340.000,"cc",28288.731,6.00,6,0.100,8201.000,0.200,2702.000,0.300,2125.000,0.500,2434.000,1.000,878.000,5.000,0
"04/08/08","20:09:17",16734.000,"cc",28442.412,6.00,6,0.100,8245.000,0.200,2846.000,0.300,2293.000,0.500,2404.000,1.000,946.000,5.000,0
"04/08/08","20:09:23",16812.000,"cc",28320.336,6.00,6,0.100,8335.000,0.200,2781.000,0.300,2184.000,0.500,2495.000,1.000,1017.000,5.000,0
"04/08/08","20:09:29",15649.000,"cc",28339.147,6.00,6,0.100,7688.000,0.200,2606.000,0.300,2153.000,0.500,2285.000,1.000,917.000,5.000,0
"04/08/08","20:09:35",14456.000,"cc",28311.461,6.00,6,0.100,7283.000,0.200,2341.000,0.300,1872.000,0.500,2169.000,1.000,791.000,5.000,0
"04/08/08","20:09:41",17129.000,"cc",28218.727,6.00,6,0.100,8282.000,0.200,2926.000,0.300,2311.000,0.500,2546.000,1.000,1064.000,5.000,0
"04/08/08","20:09:47",14477.000,"cc",28472.047,6.00,6,0.100,7285.000,0.200,2432.000,0.300,1937.000,0.500,2046.000,1.000,777.000,5.000,0
"04/08/08","20:09:53",14253.000,"cc",28463.787,6.00,6,0.100,7216.000,0.200,2274.000,0.300,1868.000,0.500,2101.000,1.000,794.000,5.000,0
"04/08/08","20:09:59",13587.000,"cc",28202.391,6.00,6,0.100,6844.000,0.200,2156.000,0.300,1822.000,0.500,1966.000,1.000,799.000,5.000,0
"04/08/08","20:10:05",15013.000,"cc",28458.457,6.00,6,0.100,7399.000,0.200,2443.000,0.300,1935.000,0.500,2270.000,1.000,966.000,5.000,0
"04/08/08","20:10:11",15084.000,"cc",28338.006,6.00,6,0.100,7572.000,0.200,2529.000,0.300,1928.000,0.500,2213.000,1.000,842.000,5.000,0
"04/08/08","20:10:17",16182.000,"cc",28225.106,6.00,6,0.100,7996.000,0.200,2649.000,0.300,2201.000,0.500,2418.000,1.000,918.000,5.000,0
"04/08/08","20:10:23",16283.000,"cc",28119.207,6.00,6,0.100,8140.000,0.200,2728.000,0.300,2097.000,0.500,2411.000,1.000,907.000,5.000,0
"04/08/08","20:10:29",15712.000,"cc",28434.178,6.00,6,0.100,7907.000,0.200,2645.000,0.300,2018.000,0.500,2281.000,1.000,861.000,5.000,0
"04/08/08","20:10:35",15543.000,"cc",28351.397,6.00,6,0.100,7753.000,0.200,2496.000,0.300,2127.000,0.500,2262.000,1.000,905.000,5.000,0
"04/08/08","20:10:41",16903.000,"cc",28317.652,6.00,6,0.100,8357.000,0.200,2841.000,0.300,2188.000,0.500,2566.000,1.000,951.000,5.000,0
"04/08/08","20:10:47",15584.000,"cc",28290.027,6.00,6,0.100,7855.000,0.200,2498.000,0.300,2105.000,0.500,2266.000,1.000,860.000,5.000,0
"04/08/08","20:10:53",15957.000,"cc",28334.395,6.00,6,0.100,7868.000,0.200,2730.000,0.300,2095.000,0.500,2369.000,1.000,895.000,5.000,0
"04/08/08","20:10:59",16092.000,"cc",28087.398,6.00,6,0.100,8040.000,0.200,2729.000,0.300,2064.000,0.500,2418.000,1.000,841.000,5.000,0
"04/08/08","20:11:05",17057.000,"cc",28249.002,6.00,6,0.100,8280.000,0.200,2925.000,0.300,2393.000,0.500,2509.000,1.000,950.000,5.000,0
"04/08/08","20:11:11",16539.000,"cc",28266.934,6.00,6,0.100,8134.000,0.200,2898.000,0.300,2230.000,0.500,2366.000,1.000,911.000,5.000,0
"04/08/08","20:11:17",15844.000,"cc",28448.672,6.00,6,0.100,7989.000,0.200,2653.000,0.300,2089.000,0.500,2250.000,1.000,863.000,5.000,0
"04/08/08","20:11:23",15283.000,"cc",28281.178,6.00,6,0.100,7780.000,0.200,2487.000,0.300,2022.000,0.500,2170.000,1.000,824.000,5.000,0
"04/08/08","20:11:29",16977.000,"cc",28386.326,6.00,6,0.100,8534.000,0.200,2865.000,0.300,2254.000,0.500,2394.000,1.000,930.000,5.000,0
"04/08/08","20:11:35",16292.000,"cc",28353.272,6.00,6,0.100,8326.000,0.200,2707.000,0.300,2085.000,0.500,2254.000,1.000,920.000,5.000,0
"04/08/08","20:11:41",16155.000,"cc",28514.850,6.00,6,0.100,8171.000,0.200,2658.000,0.300,2067.000,0.500,2364.000,1.000,895.000,5.000,0
"04/08/08","20:11:47",16287.000,"cc",28171.553,6.00,6,0.100,8322.000,0.200,2689.000,0.300,2115.000,0.500,2291.000,1.000,869.000,5.000,1.000
"04/08/08","20:11:53",16584.000,"cc",28221.346,6.00,6,0.100,8408.000,0.200,2706.000,0.300,2222.000,0.500,2313.000,1.000,935.000,5.000,0
"04/08/08","20:11:59",16701.000,"cc",28313.084,6.00,6,0.100,8424.000,0.200,2715.000,0.300,2168.000,0.500,2412.000,1.000,981.000,5.000,1.000
"04/08/08","20:12:05",15941.000,"cc",28290.418,6.00,6,0.100,8124.000,0.200,2588.000,0.300,2080.000,0.500,2265.000,1.000,883.000,5.000,1.000
"04/08/08","20:12:11",15139.000,"cc",28143.182,6.00,6,0.100,7572.000,0.200,2445.000,0.300,1998.000,0.500,2251.000,1.000,873.000,5.000,0
"04/08/08","20:12:17",15617.000,"cc",28390.211,6.00,6,0.100,7917.000,0.200,2564.000,0.300,2014.000,0.500,2227.000,1.000,895.000,5.000,0
"04/08/08","20:12:23",15394.000,"cc",28419.881,6.00,6,0.100,7685.000,0.200,2490.000,0.300,2008.000,0.500,2302.000,1.000,909.000,5.000,0
"04/08/08","20:12:29",14576.000,"cc",28415.453,6.00,6,0.100,7406.000,0.200,2347.000,0.300,1872.000,0.500,2139.000,1.000,812.000,5.000,0
"04/08/08","20:12:35",14811.000,"cc",28415.934,6.00,6,0.100,7504.000,0.200,2403.000,0.300,1923.000,0.500,2160.000,1.000,821.000,5.000,0
"04/08/08","20:12:41",13551.000,"cc",28284.606,6.00,6,0.100,7083.000,0.200,2065.000,0.300,1737.000,0.500,1927.000,1.000,739.000,5.000,0
"04/08/08","20:12:47",13225.000,"cc",28113.236,6.00,6,0.100,6852.000,0.200,2026.000,0.300,1725.000,0.500,1855.000,1.000,767.000,5.000,0
"04/08/08","20:12:53",13262.000,"cc",28229.176,6.00,6,0.100,6857.000,0.200,2012.000,0.300,1711.000,0.500,1964.000,1.000,718.000,5.000,0
"04/08/08","20:12:59",14377.000,"cc",28436.074,6.00,6,0.100,7259.000,0.200,2361.000,0.300,1853.000,0.500,2102.000,1.000,802.000,5.000,0
"04/08/08","20:13:05",15022.000,"cc",28368.910,6.00,6,0.100,7645.000,0.200,2487.000,0.300,1843.000,0.500,2159.000,1.000,888.000,5.000,0
"04/08/08","20:13:11",15113.000,"cc",28374.869,6.00,6,0.100,7563.000,0.200,2409.000,0.300,1938.000,0.500,2284.000,1.000,919.000,5.000,0
"04/08/08","20:13:17",15636.000,"cc",28181.395,6.00,6,0.100,7946.000,0.200,2555.000,0.300,2057.000,0.500,2226.000,1.000,852.000,5.000,0
"04/08/08","20:13:23",15438.000,"cc",28465.600,6.00,6,0.100,7752.000,0.200,2551.000,0.300,1953.000,0.500,2305.000,1.000,877.000,5.000,0
"04/08/08","20:13:29",14961.000,"cc",28029.486,6.00,6,0.100,7613.000,0.200,2481.000,0.300,1879.000,0.500,2157.000,1.000,831.000,5.000,0
"04/08/08","20:13:35",15218.000,"cc",28235.719,6.00,6,0.100,7832.000,0.200,2440.000,0.300,1949.000,0.500,2188.000,1.000,809.000,5.000,0
"04/08/08","20:13:41",16170.000,"cc",28421.883,6.00,6,0.100,8047.000,0.200,2753.000,0.300,2105.000,0.500,2351.000,1.000,914.000,5.000,0
"04/08/08","20:13:47",15655.000,"cc",28202.086,6.00,6,0.100,7996.000,0.200,2509.000,0.300,2097.000,0.500,2245.000,1.000,808.000,5.000,0
"04/08/08","20:13:53",14288.000,"cc",28380.570,6.00,6,0.100,7313.000,0.200,2211.000,0.300,1822.000,0.500,2122.000,1.000,820.000,5.000,0
"04/08/08","20:13:59",14156.000,"cc",28168.324,6.00,6,0.100,7336.000,0.200,2227.000,0.300,1795.000,0.500,2082.000,1.000,716.000,5.000,0
"04/08/08","20:14:05",14302.000,"cc",28375.604,6.00,6,0.100,7297.000,0.200,2286.000,0.300,1887.000,0.500,2047.000,1.000,785.000,5.000,0
"04/08/08","20:14:11",14488.000,"cc",28282.719,6.00,6,0.100,7408.000,0.200,2330.000,0.300,1822.000,0.500,2128.000,1.000,800.000,5.000,0
"04/08/08","20:14:17",15304.000,"cc",28252.313,6.00,6,0.100,7746.000,0.200,2438.000,0.300,2021.000,0.500,2207.000,1.000,892.000,5.000,0
"04/08/08","20:14:23",15084.000,"cc",28295.420,6.00,6,0.100,7559.000,0.200,2435.000,0.300,2051.000,0.500,2237.000,1.000,802.000,5.000,0
"04/08/08","20:14:29",14482.000,"cc",28432.313,6.00,6,0.100,7387.000,0.200,2320.000,0.300,1825.000,0.500,2125.000,1.000,825.000,5.000,0
"04/08/08","20:14:35",14745.000,"cc",28269.656,6.00,6,0.100,7464.000,0.200,2361.000,0.300,1917.000,0.500,2194.000,1.000,809.000,5.000,0
"04/08/08","20:14:41",14217.000,"cc",28450.947,6.00,6,0.100,7519.000,0.200,2206.000,0.300,1714.000,0.500,2030.000,1.000,748.000,5.000,0
"04/08/08","20:14:47",14622.000,"cc",28309.404,6.00,6,0.100,7580.000,0.200,2290.000,0.300,1882.000,0.500,2031.000,1.000,839.000,5.000,0
"04/08/08","20:14:53",14498.000,"cc",28401.371,6.00,6,0.100,7441.000,0.200,2309.000,0.300,1801.000,0.500,2102.000,1.000,845.000,5.000,0
"04/08/08","20:14:59",14331.000,"cc",28342.986,6.00,6,0.100,7390.000,0.200,2281.000,0.300,1815.000,0.500,1969.000,1.000,876.000,5.000,0
"04/08/08","20:15:05",14211.000,"cc",28343.295,6.00,6,0.100,7334.000,0.200,2191.000,0.300,1785.000,0.500,2104.000,1.000,797.000,5.000,0
"04/08/08","20:15:11",14644.000,"cc",28308.617,6.00,6,0.100,7404.000,0.200,2344.000,0.300,1909.000,0.500,2111.000,1.000,876.000,5.000,0
"04/08/08","20:15:17",15403.000,"cc",28295.406,6.00,6,0.100,7542.000,0.200,2539.000,0.300,2097.000,0.500,2315.000,1.000,910.000,5.000,0
"04/08/08","20:15:23",16260.000,"cc",28140.023,6.00,6,0.100,8132.000,0.200,2735.000,0.300,2113.000,0.500,2332.000,1.000,948.000,5.000,0
"04/08/08","20:15:29",17230.000,"cc",28172.490,6.00,6,0.100,8587.000,0.200,2840.000,0.300,2293.000,0.500,2538.000,1.000,972.000,5.000,0
"04/08/08","20:15:35",17571.000,"cc",28416.910,6.00,6,0.100,8571.000,0.200,3026.000,0.300,2296.000,0.500,2710.000,1.000,968.000,5.000,0
"04/08/08","20:15:41",17262.000,"cc",28230.557,6.00,6,0.100,8527.000,0.200,2805.000,0.300,2322.000,0.500,2570.000,1.000,1038.000,5.000,0
"04/08/08","20:15:47",16994.000,"cc",28331.990,6.00,6,0.100,8589.000,0.200,2785.000,0.300,2223.000,0.500,2440.000,1.000,957.000,5.000,0
"04/08/08","20:15:53",16247.000,"cc",28402.074,6.00,6,0.100,8239.000,0.200,2626.000,0.300,2177.000,0.500,2313.000,1.000,892.000,5.000,0
"04/08/08","20:15:59",16770.000,"cc",28309.443,6.00,6,0.100,8323.000,0.200,2840.000,0.300,2242.000,0.500,2377.000,1.000,988.000,5.000,0
"04/08/08","20:16:05",16534.000,"cc",28219.051,6.00,6,0.100,8236.000,0.200,2727.000,0.300,2146.000,0.500,2464.000,1.000,961.000,5.000,0
"04/08/08","20:16:11",15159.000,"cc",28542.723,6.00,6,0.100,7745.000,0.200,2304.000,0.300,1963.000,0.500,2274.000,1.000,872.000,5.000,1.000
"04/08/08","20:16:17",15166.000,"cc",28405.309,6.00,6,0.100,7691.000,0.200,2376.000,0.300,1951.000,0.500,2232.000,1.000,915.000,5.000,1.000
"04/08/08","20:16:23",16065.000,"cc",28090.836,6.00,6,0.100,8073.000,0.200,2698.000,0.300,2083.000,0.500,2281.000,1.000,930.000,5.000,0
"04/08/08","20:16:29",25088.000,"cc",28211.898,6.00,6,0.100,12217.000,0.200,4586.000,0.300,3413.000,0.500,3474.000,1.000,1398.000,5.000,0